[[{"header":{"parameterUnit":"m.s-1","parameterCategory":1,"la1":30.2991,"la2":30.254,"lo1":-89.0895,"lo2":-89.0444,"dy":0.0017,"dx":0.0017,"nx":28,"ny":28,"refTime":"2025-12-01T09:00:00:Z","depth":0,"parameterNumber":2,"parameterNumberName":"U-component_of_WINDS"},"data":[0,0,0,0,0,0,0,0,0,0,0,0,0,0,0,0,0,0,0,0,0,0,0,0,0,0,0,0,0,0,0,0,0,0,0,0,0,0,0,0,0,0,0,0,0,0,0,0,0,0,0,0,0,0,0,0,0,0,2.9328,2.9328,0,2.9355,2.9356,2.9356,2.9319,2.9318,2.9317,2.9315,2.9344,2.9346,2.9348,0,0,0,0,0,0,0,0,0,0,0,0,0,2.9244,2.9246,2.9328,2.9328,2.9328,2.9355,2.9356,2.9356,2.932,2.9318,2.9316,2.9315,2.9343,2.9345,2.9348,0,0,0,0,0,0,0,0,0,0,0,0,0,2.9277,2.9246,2.9328,2.9313,2.9312,2.9355,2.9356,2.9356,2.932,2.9318,2.9316,2.9314,2.9342,2.9345,2.9348,2.9406,0,0,2.9357,2.9358,0,0,0,0,0,0,0,0,2.9275,2.928,2.9315,2.9314,2.9313,2.9332,2.9337,2.9373,2.932,2.9317,2.9315,2.9313,2.9341,2.9344,2.9354,2.9408,2.9409,2.9357,2.9359,2.9361,2.9361,0,0,0,0,0,0,0,2.9273,2.9279,2.9339,2.9316,2.9315,2.9306,2.9309,2.9343,2.934,2.9317,2.9315,2.9318,2.934,2.9351,2.9354,2.9409,2.9357,2.936,2.9362,2.9363,2.9514,2.9517,0,0,0,0,0,0,2.9272,2.9277,2.9338,2.9339,2.9289,2.9309,2.9312,2.9328,2.934,2.9339,2.932,2.9317,2.9347,2.9351,2.9355,2.9425,2.936,2.9363,2.9365,2.9512,2.9515,2.9517,0,0,0,0,0,0,2.9271,2.9278,2.9337,2.9308,2.9314,2.9313,2.9331,2.933,2.934,2.9342,2.9341,2.9331,2.9346,2.9351,2.9394,2.9426,2.9365,2.9367,2.951,2.9513,2.9516,2.9566,0,0,0,0,0,0,2.9268,2.9278,2.9299,2.9308,2.9316,2.9375,2.9333,2.9332,2.9345,2.9341,2.9352,2.9352,2.9344,2.939,2.9397,2.9429,2.937,2.9507,2.9511,2.9515,2.9561,2.957,2.9578,0,0,0,0,0,2.9266,2.9312,2.9301,2.9308,2.9343,2.9377,2.9381,2.9372,2.9348,2.937,2.9372,2.9352,2.9421,2.9395,2.9403,2.9436,2.9505,2.951,2.9515,2.9557,2.9569,2.9578,0,0,0,0,0,0,2.9306,2.9312,2.93,2.9351,2.9364,2.9371,2.9398,2.9383,2.9403,2.9398,2.9385,2.9388,2.9435,2.9439,2.941,2.9494,2.9459,2.9466,2.9489,2.95,2.9508,2.9506,2.9372,0,0,0,0,0,2.9321,2.9347,2.9352,2.9396,2.9403,2.94,2.9414,2.9406,2.9419,2.9424,2.9428,2.9442,2.9467,2.9483,2.9506,2.9562,2.9565,2.9588,2.9597,2.9604,2.961,2.9642,2.9653,2.9534,2.9534,2.9534,0,0,2.9351,2.9358,2.9376,2.9404,2.9413,2.9442,2.9404,2.9436,2.9457,2.9428,2.947,2.9474,2.9488,2.9539,2.9561,2.9544,2.9644,2.961,2.9616,2.9618,2.9648,2.9659,2.9669,2.9537,2.9537,2.9536,0,0,2.9422,2.9429,2.9468,2.9478,2.9493,2.949,2.95,2.951,2.9512,2.9553,2.9533,2.9558,2.9601,2.9613,2.9624,2.9702,2.9685,2.971,2.9754,2.9785,2.9794,2.9803,2.9832,2.9842,2.9716,2.9716,2.9716,0,2.9458,2.95,2.9489,2.9523,2.9537,2.9513,2.9552,2.9563,2.9584,2.9594,2.9575,2.963,2.9637,2.9691,2.971,2.972,2.9731,2.9708,2.9794,2.9802,2.981,2.9837,2.9848,2.9719,2.9719,2.9718,2.9718,0,2.9545,2.9575,2.9604,2.9626,2.9643,2.9679,2.9675,2.9693,2.9684,2.9684,2.9728,2.9737,2.9762,2.9774,2.9765,2.9828,2.9817,2.9796,2.9761,2.9824,2.985,2.986,2.9723,2.9722,2.9721,2.9721,0,0,2.964,2.9657,2.9669,2.9679,2.9694,2.9717,2.9754,2.9779,2.9796,2.9812,2.9842,2.988,2.9862,2.9875,2.9867,2.9894,2.9957,2.987,2.987,2.9887,3.0029,3.0045,3.0057,2.9946,2.9948,2.995,3.0028,0,2.9712,2.9774,2.9767,2.9827,2.9855,2.9834,2.9865,2.9879,2.988,2.9905,2.9907,2.9934,2.9907,2.9915,2.9941,2.9944,2.9986,2.9938,2.9976,2.9977,2.9973,3.007,3.0087,3.016,3.0038,3.0039,3.0041,0,2.9804,2.9824,2.9887,2.99,2.9912,2.994,2.9964,2.9987,3.0003,3.0002,3.0018,3.0006,3.0043,3.0008,3.0059,3.0028,3.0042,3.0047,3.0049,3.0053,3.0013,3.0078,3.0183,3.0195,3.0056,3.0055,3.0054,0,2.9869,2.9912,2.9956,2.9965,2.9981,3.0002,3.001,3.0023,3.0039,3.006,3.0071,3.0095,3.0109,3.0129,3.0124,3.0099,3.0178,3.0142,3.018,3.018,3.0197,3.0196,3.0308,3.0206,3.0206,3.0205,3.0205,0,2.995,2.999,2.9986,3.0012,3.0057,3.0048,3.0093,3.0098,3.011,3.0138,3.0121,3.0148,3.014,3.0167,3.0164,3.0208,3.0214,3.0215,3.0214,3.0217,3.0217,3.0227,3.0222,3.0208,3.0208,3.0207,3.0207,0,3.003,3.0029,3.0075,3.0087,3.0091,3.0124,3.0134,3.016,3.0161,3.0197,3.0205,3.0207,3.0238,3.0235,3.0269,3.0267,3.0323,3.0315,3.0318,3.0317,3.0355,3.0352,3.0477,3.0494,3.038,3.0381,3.0382,0,3.0082,3.0113,3.0128,3.0146,3.0156,3.0184,3.0201,3.0195,3.0213,3.0234,3.0258,3.0288,3.0311,3.0362,3.0366,3.0393,3.0387,3.0429,3.0391,3.0394,3.0389,3.0388,3.0391,3.0437,3.0438,3.0439,3.044,0,3.0176,3.0174,3.0199,3.0225,3.0246,3.0266,3.0284,3.03,3.0295,3.0317,3.0349,3.0367,3.0404,3.0434,3.046,3.0468,3.0454,3.0452,3.0462,3.0466,3.0467,3.0469,3.034,3.0449,3.0448,3.0447,3.0447,3.0447,3.0244,3.0271,3.0287,3.0316,3.0329,3.0347,3.0373,3.0378,3.0404,3.0433,3.0428,3.0464,3.048,3.0514,3.0525,3.0554,3.0539,3.0554,3.0558,3.0562,3.0567,3.0462,3.0559,3.0558,3.0558,3.0558,3.0558,0,3.0338,3.0348,3.0375,3.0401,3.0425,3.0409,3.0429,3.045,3.0482,3.0499,3.0523,3.0561,3.059,3.0598,3.0627,3.0649,3.0643,3.0656,3.0655,3.0658,3.0578,3.0567,3.0661,3.0661,3.0661,3.0661,3.0661,3.0661,3.039,3.0435,3.0435,3.0487,3.0496,3.0532,3.0545,3.0562,3.0575,3.0618,3.0643,3.0648,3.0662,3.0692,3.0719,3.072,3.0732,3.0749,3.0748,3.0673,3.0663,3.0653,3.0643,3.0751,3.0751,3.0826,3.0826,3.0827]},{"header":{"parameterUnit":"m.s-1","parameterCategory":1,"la1":30.2991,"la2":30.254,"lo1":-89.0895,"lo2":-89.0444,"dy":0.0017,"dx":0.0017,"nx":28,"ny":28,"refTime":"2025-12-01T09:00:00:Z","depth":0,"parameterNumber":3,"parameterNumberName":"V-component_of_WINDS"},"data":[0,0,0,0,0,0,0,0,0,0,0,0,0,0,0,0,0,0,0,0,0,0,0,0,0,0,0,0,0,0,0,0,0,0,0,0,0,0,0,0,0,0,0,0,0,0,0,0,0,0,0,0,0,0,0,0,0,0,-6.3914,-6.3916,0,-6.4031,-6.4033,-6.4034,-6.4028,-6.4026,-6.4024,-6.4023,-6.4135,-6.414,-6.4144,0,0,0,0,0,0,0,0,0,0,0,0,0,-6.3681,-6.3685,-6.3914,-6.3916,-6.3917,-6.4031,-6.4033,-6.4034,-6.4028,-6.4026,-6.4024,-6.4022,-6.4134,-6.4139,-6.4145,0,0,0,0,0,0,0,0,0,0,0,0,0,-6.3788,-6.3687,-6.3914,-6.3928,-6.393,-6.4031,-6.4033,-6.4035,-6.4028,-6.4026,-6.4023,-6.4021,-6.4132,-6.4139,-6.4145,-6.4237,0,0,-6.4166,-6.4169,0,0,0,0,0,0,0,0,-6.3782,-6.3797,-6.3925,-6.3927,-6.393,-6.4012,-6.3992,-6.4102,-6.4029,-6.3991,-6.4023,-6.402,-6.4096,-6.4106,-6.4133,-6.4243,-6.4247,-6.4167,-6.4171,-6.4174,-6.4176,0,0,0,0,0,0,0,-6.3775,-6.3792,-6.396,-6.3926,-6.393,-6.3927,-6.3939,-6.4013,-6.4056,-6.3994,-6.3994,-6.4008,-6.4097,-6.4126,-6.4135,-6.4249,-6.4167,-6.4173,-6.4177,-6.418,-6.4442,-6.4445,0,0,0,0,0,0,-6.3765,-6.3786,-6.3957,-6.3964,-6.3849,-6.3933,-6.3947,-6.3988,-6.4055,-6.4063,-6.401,-6.4007,-6.4116,-6.4127,-6.4139,-6.4253,-6.4174,-6.418,-6.4184,-6.4439,-6.4443,-6.4446,0,0,0,0,0,0,-6.376,-6.3781,-6.3952,-6.3875,-6.3897,-6.394,-6.3986,-6.3992,-6.4021,-6.4067,-6.4074,-6.4033,-6.4114,-6.413,-6.4214,-6.4256,-6.4183,-6.419,-6.4436,-6.444,-6.4444,-6.4479,0,0,0,0,0,0,-6.3754,-6.3779,-6.3815,-6.3876,-6.3901,-6.4026,-6.3989,-6.3996,-6.4034,-6.4031,-6.409,-6.4097,-6.4114,-6.4204,-6.4221,-6.4264,-6.4195,-6.4432,-6.4438,-6.4443,-6.4474,-6.4484,-6.4492,0,0,0,0,0,-6.3745,-6.3818,-6.3817,-6.3838,-6.3947,-6.4029,-6.4043,-6.4062,-6.4037,-6.4074,-6.4104,-6.4095,-6.4249,-6.4213,-6.4231,-6.4278,-6.443,-6.4436,-6.4442,-6.447,-6.4482,-6.4492,0,0,0,0,0,0,-6.3758,-6.3826,-6.3826,-6.3921,-6.3969,-6.4027,-6.4073,-6.4073,-6.4128,-6.4123,-6.4142,-6.4156,-6.4241,-6.4268,-6.4225,-6.4371,-6.4336,-6.4347,-6.4351,-6.4362,-6.4371,-6.4363,-6.4201,0,0,0,0,0,-6.3772,-6.3835,-6.389,-6.3968,-6.3993,-6.403,-6.4065,-6.4077,-6.4127,-6.4146,-6.4182,-6.4229,-6.4289,-6.4327,-6.4384,-6.4479,-6.4491,-6.452,-6.4529,-6.4536,-6.4545,-6.4598,-6.4612,-6.4467,-6.4467,-6.4467,0,0,-6.3801,-6.3846,-6.3884,-6.3972,-6.4011,-6.4074,-6.4047,-6.4113,-6.416,-6.4156,-6.4239,-6.4267,-6.4321,-6.4411,-6.4453,-6.4436,-6.4588,-6.4544,-6.455,-6.4555,-6.4606,-6.462,-6.4632,-6.4472,-6.4471,-6.447,0,0,-6.3887,-6.3927,-6.3998,-6.4039,-6.41,-6.4124,-6.4141,-6.42,-6.422,-6.4304,-6.4303,-6.4357,-6.4458,-6.4498,-6.4531,-6.4635,-6.463,-6.4653,-6.47,-6.4752,-6.4763,-6.4773,-6.4811,-6.4824,-6.4661,-6.4661,-6.4662,0,-6.3915,-6.4011,-6.4034,-6.4103,-6.4142,-6.4145,-6.4216,-6.4254,-6.4329,-6.4355,-6.4336,-6.4465,-6.4501,-6.4602,-6.4628,-6.4654,-6.4674,-6.4646,-6.476,-6.477,-6.478,-6.4816,-6.4831,-6.4664,-6.4664,-6.4663,-6.4663,0,-6.4043,-6.411,-6.416,-6.4237,-6.4281,-6.435,-6.4383,-6.4425,-6.4433,-6.4459,-6.4545,-6.4589,-6.4656,-6.4681,-6.4687,-6.4783,-6.4771,-6.4756,-6.4721,-6.4796,-6.4831,-6.4845,-6.4667,-6.4667,-6.4666,-6.4665,0,0,-6.4137,-6.4229,-6.4246,-6.4282,-6.4351,-6.4402,-6.4472,-6.454,-6.4577,-6.4629,-6.4688,-6.4775,-6.4763,-6.48,-6.4812,-6.4857,-6.4938,-6.4837,-6.4838,-6.4855,-6.5047,-6.5058,-6.5074,-6.4936,-6.4939,-6.4941,-6.5043,0,-6.4231,-6.4358,-6.4381,-6.4491,-6.4554,-6.4559,-6.462,-6.4668,-6.4695,-6.475,-6.4779,-6.4841,-6.4819,-6.4843,-6.4888,-6.4919,-6.4977,-6.4912,-6.499,-6.4992,-6.4976,-6.5092,-6.5103,-6.5197,-6.5056,-6.5059,-6.506,0,-6.4356,-6.4415,-6.4532,-6.4595,-6.4622,-6.4677,-6.4743,-6.4797,-6.4851,-6.4867,-6.4912,-6.4919,-6.4991,-6.4954,-6.5053,-6.5008,-6.5041,-6.5062,-6.5066,-6.5073,-6.5031,-6.5102,-6.5228,-6.5242,-6.5082,-6.508,-6.5078,0,-6.4414,-6.4523,-6.4608,-6.4638,-6.4713,-6.4751,-6.4784,-6.4837,-6.4877,-6.4934,-6.496,-6.5024,-6.5058,-6.5107,-6.5131,-6.5101,-6.5229,-6.5193,-6.5244,-6.5243,-6.5269,-6.5267,-6.5402,-6.5291,-6.5291,-6.5291,-6.529,0,-6.4515,-6.4587,-6.4635,-6.4687,-6.4768,-6.4794,-6.4873,-6.4904,-6.4952,-6.5009,-6.5016,-6.5069,-6.5098,-6.5155,-6.5174,-6.5254,-6.527,-6.5284,-6.5288,-6.5284,-6.5282,-6.5305,-6.5299,-6.5294,-6.5294,-6.5293,-6.5292,0,-6.4593,-6.4628,-6.4721,-6.4787,-6.4805,-6.4861,-6.4916,-6.4966,-6.4994,-6.5067,-6.5085,-6.5128,-6.5196,-6.5226,-6.5308,-6.5321,-6.5413,-6.5412,-6.5395,-6.5397,-6.5446,-6.5441,-6.56,-6.5622,-6.5497,-6.5498,-6.5499,0,-6.4655,-6.4711,-6.4783,-6.4824,-6.4859,-6.4924,-6.4966,-6.4995,-6.5038,-6.5107,-6.5149,-6.5218,-6.5275,-6.5383,-6.5421,-6.5484,-6.5485,-6.5537,-6.5494,-6.5489,-6.5486,-6.5483,-6.5489,-6.5544,-6.5545,-6.5546,-6.5547,0,-6.4762,-6.4778,-6.484,-6.491,-6.4961,-6.5016,-6.507,-6.5102,-6.5139,-6.5187,-6.5259,-6.5304,-6.5391,-6.5459,-6.5526,-6.5557,-6.5558,-6.556,-6.5575,-6.5571,-6.5559,-6.5567,-6.5416,-6.5556,-6.5555,-6.5554,-6.5554,-6.5553,-6.4834,-6.4885,-6.4945,-6.5015,-6.5059,-6.511,-6.5162,-6.5198,-6.5259,-6.5334,-6.5346,-6.5423,-6.5478,-6.5568,-6.5603,-6.5662,-6.5649,-6.5671,-6.5676,-6.5681,-6.5685,-6.5551,-6.5674,-6.5674,-6.5674,-6.5673,-6.5673,0,-6.4942,-6.4982,-6.5046,-6.5123,-6.5178,-6.5178,-6.5238,-6.5283,-6.5352,-6.5404,-6.5461,-6.5544,-6.5612,-6.5656,-6.5723,-6.5762,-6.5765,-6.5779,-6.5776,-6.5784,-6.5692,-6.5673,-6.5777,-6.5777,-6.5777,-6.5776,-6.5776,-6.5776,-6.5005,-6.5092,-6.5115,-6.5224,-6.5262,-6.534,-6.5374,-6.5421,-6.5464,-6.5557,-6.5614,-6.5644,-6.5693,-6.5765,-6.5826,-6.5837,-6.5862,-6.5878,-6.5888,-6.5801,-6.579,-6.578,-6.5762,-6.5883,-6.5883,-6.5975,-6.5976,-6.5976]}]]